Meteor 2-10 Rocket - Orbit

View from above orbital plane
View from above orbital plane
View from above satellite
View from above satellite

Ground track
Ground track

The orbit data is extracted from the following two-line orbital elements,

1 14453U 83109B   13138.64752154  .00000163  00000-0  60974-4 0  8751
2 14453 081.1652 165.5137 0105966 055.4799 092.5945 14.24389614535319
Epoch (UTC): 18 May 2013 15:32:25
Eccentricity: 0.0105966
inclination: 81.1652°
perigee height: 734 km
apogee height: 887 km
right ascension of ascending node: 165.5137°
argument of perigee: 55.4799°
revolutions per day: 14.24389614
mean anomaly at epoch: 92.5945°
orbit number at epoch: 53531

The dashed part of the orbit path shows where the satellite is in the earth's shadow,  

Developed and maintained by Chris Peat, Heavens-Above GmbH. Please read the updated FAQ before sending e-mail. Imprint. DLR